Location: ??
(35.5138°N, 139.6953°E)
Time: 22:40:55
(UTC+00:00)

Cosmos 1331 Rocket - Pass Details

Date: 07 June 2020
Orbit: 749 x 778 km, 74.0° (Epoch: 07 July)

Event Time Altitude Azimuth Distance (km) Brightness Sun altitude
Rises 10:25:18 0° 185° (S) 3,178 6.9 -6.1°
Reaches altitude 10° 10:27:41 10° 181° (S) 2,260 6.1 -6.5°
Maximum altitude 10:32:41 57° 104° (ESE) 885 4.1 -7.4°
Drops below altitude 10° 10:37:44 10° 26° (NNE) 2,286 6.6 -8.2°
Sets 10:40:09 0° 23° (NNE) 3,219 7.4 -8.6°
